Home   Weather   Odessa   Past weeks

Flag for USA Past Weather in Odessa, Texas, USA — Yesterday and Last 2 Weeks

Now
63 °F

Clear.


Feels Like: 63 °F
Forecast: 60 / 84 °F
Wind: 5 mph from Southeast

Location: Odessa-Schlemeyer Field

Current Time: Oct 1, 2016 at 7:07:39 AM

Latest Report: Oct 1, 2016 at 5:53 AM


Visibility: 10 mi

Pressure: 29.98 "Hg (27.02 "Hg at 882m altitude)

Humidity: 73%

Dew Point: 54 °F

Location of OdessaLocation

Past Weather in Odessa — Graph

°F

Odessa Temperature Yesterday

Maximum temperature yesterday: 79 °F (at 3:53 PM)
Minimum temperature yesterday: 56 °F (at 6:53 AM)
Average temperature yesterday: 68 °F

High & Low Weather Summary for the Past Weeks

 TemperatureHumidityPressure
High94 °F (Sep 19, 4:53 PM)90% (Sep 17, 8:53 PM)30.28 "Hg (Sep 17, 8:53 PM)
Low54 °F (Sep 27, 3:53 AM)25% (Sep 21, 5:53 PM)29.75 "Hg (Sep 23, 4:53 PM)
Average74 °F58%30.00 "Hg
* Reported Sep 16 5:53 AM — Oct 1 5:53 AM, Odessa, Weather by CustomWeather, © 2016

Note: Actual official high and low records may vary slightly from our data, if they occured in-between our weather recording intervals... More about our weather records

Advertising

Odessa Weather History for the Previous 24 Hours

Scroll right to see more
 ConditionsComfort  
Time TempWeatherWind HumidityBarometerVisibility
5:53 AM
Sat, Oct 1
63 °FClear.5 mph73%29.98 "Hg10 mi
4:53 AM65 °FClear.7 mph68%29.98 "Hg10 mi
3:53 AM65 °FClear.7 mph68%30.00 "Hg10 mi
2:53 AM64 °FClear.5 mph68%30.01 "Hg10 mi
1:53 AM67 °FClear.8 mph61%30.01 "Hg10 mi
12:53 AM69 °FClear.12 mph57%30.02 "Hg10 mi
11:53 PM
Fri, Sep 30
69 °FClear.10 mph55%30.03 "Hg10 mi
10:53 PM70 °FClear.9 mph51%30.02 "Hg10 mi
9:53 PM70 °FClear.8 mph49%30.03 "Hg10 mi
8:53 PM71 °FClear.7 mph42%30.03 "Hg10 mi
7:53 PM75 °FClear.8 mph36%30.01 "Hg10 mi
6:53 PM79 °FSunny.12 mph30%30.01 "Hg10 mi
5:53 PM78 °FSunny.13 mph33%30.00 "Hg10 mi
4:53 PM79 °FSunny.10 mph32%30.03 "Hg10 mi
3:53 PM79 °FSunny.8 mph34%30.06 "Hg10 mi
2:53 PM78 °FSunny.3 mph36%30.09 "Hg10 mi
1:53 PM77 °FSunny.12 mph36%30.14 "Hg10 mi
12:53 PM75 °FSunny.8 mph39%30.16 "Hg10 mi
11:53 AM73 °FSunny.9 mph40%30.18 "Hg10 mi
10:53 AM67 °FSunny.10 mph49%30.19 "Hg10 mi
9:53 AM63 °FSunny.N/A58%30.20 "Hg10 mi
8:53 AM60 °FSunny.10 mph62%30.19 "Hg10 mi
7:53 AM56 °FSunny.7 mph72%30.18 "Hg10 mi
Weather by CustomWeather, © 2016

See weather overviewHow to use our weather pages